EXS1YW EGPH-LGKO

Flight info

Callsign EXS1YW
Flight time 3h 52m
Altitude 35000
Route TLA Y96 OTBUN DCT GODOS DCT DOJOH/N0458F350 DCT DODEN DCT NEGIX DCT DINKU M867 XERUM DCT BAVAX DCT RADIZ DCT VILAK DCT DOL DCT NIVES DCT MONID DCT NAVSU DCT EMKES DCT XELMI DCT AKIKA DCT ENFAR DCT PEP DCT TALAS UN130 ESOPO DCT MES UN139 LURUS L995 KOPAR
Aircraft B738/M-SDE2E3FGHIRWXY/LB1

Departure

Time 2026-05-04 11:47
Airport Edinburgh Airport (EGPH)

Arrival

Time 2026-05-04 15:39
Airport Kos International Airport "Ippokratis" (LGKO)
Time Latitude Longitude Altitude Speed Heading
2026-05-04 11:06 55.94703 -3.36853 142 ft 0 kts 269°
2026-05-04 11:33 55.94703 -3.36838 142 ft 2 kts 269°
2026-05-04 11:33 55.94703 -3.36811 142 ft 2 kts 269°
2026-05-04 11:33 55.94704 -3.36784 142 ft 2 kts 270°
2026-05-04 11:34 55.94704 -3.36758 142 ft 1 kts 287°
2026-05-04 11:34 55.94694 -3.36737 142 ft 2 kts 337°
2026-05-04 11:34 55.94680 -3.36735 142 ft 2 kts
2026-05-04 11:34 55.94666 -3.36736 142 ft 0 kts 357°
2026-05-04 11:35 55.94664 -3.36736 142 ft 0 kts 358°
2026-05-04 11:40 55.94678 -3.36736 142 ft 2 kts 359°
2026-05-04 11:41 55.94704 -3.36737 142 ft 4 kts 359°
2026-05-04 11:41 55.94747 -3.36743 142 ft 7 kts 341°
2026-05-04 11:41 55.94803 -3.36776 142 ft 9 kts 355°
2026-05-04 11:41 55.94866 -3.36781 142 ft 8 kts 353°
2026-05-04 11:42 55.94914 -3.36823 142 ft 7 kts 334°
2026-05-04 11:42 55.94954 -3.36802 142 ft 6 kts 47°
2026-05-04 11:42 55.94988 -3.36710 142 ft 11 kts 59°
2026-05-04 11:42 55.95039 -3.36562 142 ft 16 kts 58°
2026-05-04 11:43 55.95096 -3.36387 142 ft 15 kts 57°
2026-05-04 11:43 55.95153 -3.36222 142 ft 16 kts 59°
2026-05-04 11:43 55.95213 -3.36046 142 ft 16 kts 59°
2026-05-04 11:43 55.95271 -3.35874 142 ft 15 kts 59°
2026-05-04 11:44 55.95326 -3.35714 142 ft 14 kts 59°
2026-05-04 11:44 55.95376 -3.35566 142 ft 13 kts 59°
2026-05-04 11:44 55.95418 -3.35441 142 ft 9 kts 57°
2026-05-04 11:44 55.95472 -3.35415 142 ft 8 kts 334°
2026-05-04 11:45 55.95519 -3.35462 142 ft 7 kts 330°
2026-05-04 11:45 55.95564 -3.35509 142 ft 6 kts 329°
2026-05-04 11:45 55.95575 -3.35542 142 ft 2 kts 257°
2026-05-04 11:45 55.95570 -3.35562 142 ft 1 kts 240°
2026-05-04 11:46 55.95561 -3.35589 142 ft 10 kts 240°
2026-05-04 11:46 55.95395 -3.36082 142 ft 79 kts 240°
2026-05-04 11:46 55.95010 -3.37213 142 ft 134 kts 240°
2026-05-04 11:46 55.94452 -3.38850 281 ft 167 kts 239°
2026-05-04 11:47 55.93872 -3.40581 1000 ft 162 kts 244°
2026-05-04 11:47 55.93303 -3.42303 1650 ft 163 kts 239°
2026-05-04 11:47 55.92680 -3.43980 2118 ft 166 kts 239°
2026-05-04 11:47 55.92050 -3.45780 2451 ft 177 kts 242°
2026-05-04 11:48 55.91399 -3.47720 2779 ft 189 kts 241°
2026-05-04 11:48 55.90687 -3.49804 3077 ft 205 kts 241°
2026-05-04 11:48 55.89933 -3.52048 3419 ft 218 kts 242°
2026-05-04 11:48 55.89145 -3.54467 3791 ft 231 kts 242°
2026-05-04 11:49 55.88339 -3.56944 4330 ft 237 kts 242°
2026-05-04 11:49 55.87236 -3.59223 4795 ft 251 kts 216°
2026-05-04 11:49 55.85587 -3.60343 5190 ft 267 kts 192°
2026-05-04 11:49 55.83693 -3.60404 5740 ft 277 kts 171°
2026-05-04 11:50 55.81925 -3.59133 6352 ft 282 kts 151°
2026-05-04 11:50 55.80262 -3.57215 6933 ft 287 kts 147°
2026-05-04 11:50 55.78601 -3.55204 7582 ft 289 kts 148°
2026-05-04 11:50 55.76939 -3.53286 8194 ft 291 kts 149°
2026-05-04 11:51 55.75197 -3.51372 8806 ft 294 kts 150°
2026-05-04 11:51 55.73457 -3.49511 9377 ft 297 kts 151°
2026-05-04 11:51 55.71683 -3.47633 9936 ft 301 kts 151°
2026-05-04 11:51 55.69803 -3.45931 10379 ft 308 kts 160°
2026-05-04 11:52 55.67729 -3.44627 10635 ft 323 kts 165°
2026-05-04 11:52 55.65542 -3.43500 10862 ft 338 kts 166°
2026-05-04 11:52 55.63215 -3.42347 11162 ft 351 kts 166°
2026-05-04 11:52 55.60838 -3.41141 11390 ft 367 kts 166°
2026-05-04 11:53 55.58348 -3.39842 11603 ft 382 kts 165°
2026-05-04 11:53 55.56645 -3.38931 11761 ft 392 kts 164°
2026-05-04 11:53 55.53260 -3.36267 12336 ft 404 kts 148°
2026-05-04 11:53 55.51167 -3.32988 12906 ft 409 kts 130°
2026-05-04 11:55 55.45670 -2.98812 17076 ft 432 kts 109°
2026-05-04 11:55 55.44489 -2.93943 17670 ft 435 kts 115°
2026-05-04 11:56 55.43110 -2.89262 18249 ft 438 kts 118°
2026-05-04 11:56 55.41591 -2.84551 18795 ft 442 kts 119°
2026-05-04 11:56 55.40048 -2.79923 19381 ft 443 kts 120°
2026-05-04 11:56 55.38496 -2.75277 19928 ft 446 kts 119°
2026-05-04 11:57 55.36938 -2.70577 20466 ft 449 kts 118°
2026-05-04 11:57 55.35370 -2.65815 20961 ft 452 kts 118°
2026-05-04 11:57 55.33804 -2.61030 21486 ft 455 kts 118°
2026-05-04 11:57 55.32219 -2.56166 21982 ft 458 kts 118°
2026-05-04 11:58 55.30656 -2.51361 22483 ft 460 kts 118°
2026-05-04 11:58 55.29071 -2.46482 22981 ft 462 kts 117°
2026-05-04 11:58 55.27495 -2.41619 23466 ft 464 kts 117°
2026-05-04 11:58 55.25914 -2.36619 23977 ft 466 kts 116°
2026-05-04 11:59 55.24378 -2.31656 24375 ft 470 kts 116°
2026-05-04 11:59 55.22838 -2.26627 24800 ft 473 kts 116°
2026-05-04 11:59 55.21278 -2.21523 25279 ft 474 kts 116°
2026-05-04 11:59 55.19728 -2.16463 25649 ft 478 kts 116°
2026-05-04 12:00 55.18160 -2.11358 26109 ft 479 kts 116°
2026-05-04 12:00 55.16575 -2.06225 26485 ft 482 kts 116°
2026-05-04 12:00 55.14979 -2.01072 26944 ft 483 kts 116°
2026-05-04 12:00 55.13364 -1.95883 27521 ft 481 kts 116°
2026-05-04 12:01 55.11782 -1.90820 28102 ft 478 kts 116°
2026-05-04 12:01 55.10188 -1.85734 28640 ft 476 kts 116°
2026-05-04 12:02 55.00685 -1.55649 31464 ft 465 kts 115°
2026-05-04 12:03 54.99131 -1.50766 31943 ft 462 kts 115°
2026-05-04 12:03 54.97579 -1.45902 32387 ft 459 kts 115°
2026-05-04 12:03 54.96037 -1.41076 32736 ft 458 kts 115°
2026-05-04 12:03 54.94500 -1.36267 32990 ft 460 kts 116°
2026-05-04 12:04 54.92944 -1.31407 33138 ft 463 kts 116°
2026-05-04 12:04 54.91373 -1.26511 33423 ft 463 kts 116°
2026-05-04 12:04 54.89808 -1.21644 33771 ft 461 kts 116°
2026-05-04 12:04 54.88269 -1.16871 34142 ft 458 kts 116°
2026-05-04 12:05 54.86715 -1.12064 34446 ft 457 kts 116°
2026-05-04 12:05 54.85146 -1.07222 34760 ft 455 kts 117°
2026-05-04 12:05 54.83606 -1.02476 34973 ft 455 kts 116°
2026-05-04 12:05 54.82057 -0.97714 35044 ft 457 kts 117°
2026-05-04 12:06 54.78944 -0.88170 35051 ft 455 kts 117°
2026-05-04 12:06 54.75837 -0.78688 35046 ft 454 kts 116°
2026-05-04 12:07 54.72718 -0.69201 35036 ft 454 kts 116°
2026-05-04 12:07 54.69603 -0.59765 35039 ft 453 kts 116°
2026-05-04 12:08 54.66486 -0.50357 35041 ft 451 kts 116°
2026-05-04 12:08 54.63379 -0.41011 35046 ft 453 kts 116°
2026-05-04 12:09 54.60257 -0.31661 35045 ft 452 kts 117°
2026-05-04 12:09 54.57135 -0.22349 35052 ft 451 kts 117°
2026-05-04 12:10 54.53998 -0.13024 35048 ft 450 kts 117°
2026-05-04 12:10 54.50863 -0.03739 35050 ft 449 kts 117°
2026-05-04 12:11 54.47735 0.05483 35050 ft 449 kts 117°
2026-05-04 12:11 54.44587 0.14734 35044 ft 449 kts 117°
2026-05-04 12:12 54.41439 0.23949 35046 ft 449 kts 117°
2026-05-04 12:12 54.38296 0.33114 35049 ft 447 kts 117°
2026-05-04 12:14 54.25716 0.69460 35046 ft 448 kts 118°
2026-05-04 12:15 54.22545 0.78539 35048 ft 446 kts 118°
2026-05-04 12:15 54.19360 0.87621 35047 ft 445 kts 118°
2026-05-04 12:16 54.16196 0.96609 35049 ft 443 kts 118°
2026-05-04 12:16 54.13037 1.05553 35050 ft 442 kts 118°
2026-05-04 12:17 54.09843 1.14566 35049 ft 445 kts 118°
2026-05-04 12:17 54.06663 1.23506 35050 ft 444 kts 118°
2026-05-04 12:18 54.03471 1.32445 35049 ft 444 kts 118°
2026-05-04 12:18 54.00253 1.41428 35047 ft 444 kts 118°
2026-05-04 12:19 53.97053 1.50324 35047 ft 445 kts 118°
2026-05-04 12:19 53.93830 1.59257 35037 ft 445 kts 118°
2026-05-04 12:20 53.90597 1.68180 35023 ft 444 kts 120°
2026-05-04 12:20 53.87352 1.77110 35029 ft 446 kts 120°
2026-05-04 12:21 53.84100 1.86025 35023 ft 448 kts 120°
2026-05-04 12:21 53.80825 1.94968 35028 ft 449 kts 120°
2026-05-04 12:22 53.77529 2.03936 35014 ft 450 kts 120°
2026-05-04 12:22 53.74229 2.12881 35016 ft 450 kts 120°
2026-05-04 12:23 53.70935 2.21782 35026 ft 450 kts 120°
2026-05-04 12:23 53.67607 2.30743 35019 ft 454 kts 120°
2026-05-04 12:24 53.64215 2.39844 35017 ft 461 kts 120°
2026-05-04 12:24 53.60798 2.48981 35014 ft 468 kts 121°
2026-05-04 12:25 53.57338 2.58191 35014 ft 465 kts 121°
2026-05-04 12:25 53.53867 2.67392 35017 ft 468 kts 122°
2026-05-04 12:26 53.50367 2.76645 35012 ft 469 kts 122°
2026-05-04 12:26 53.46876 2.85836 35015 ft 470 kts 123°
2026-05-04 12:27 53.43368 2.95037 35016 ft 471 kts 123°
2026-05-04 12:27 53.39846 3.04243 35018 ft 471 kts 123°
2026-05-04 12:28 53.36328 3.13404 35021 ft 471 kts 124°
2026-05-04 12:28 53.32785 3.22599 35015 ft 470 kts 124°
2026-05-04 12:29 53.29252 3.31733 35021 ft 470 kts 124°
2026-05-04 12:29 53.25721 3.40859 35017 ft 470 kts 124°
2026-05-04 12:30 53.21911 3.49562 35022 ft 468 kts 132°
2026-05-04 12:30 53.17675 3.57696 35024 ft 465 kts 134°
2026-05-04 12:31 53.13381 3.65728 35012 ft 465 kts 135°
2026-05-04 12:31 53.09123 3.73748 35007 ft 464 kts 135°
2026-05-04 12:32 53.02770 3.85841 34993 ft 464 kts 135°
2026-05-04 12:33 52.98546 3.93914 35001 ft 463 kts 135°
2026-05-04 12:33 52.94340 4.01943 34988 ft 464 kts 135°
2026-05-04 12:34 52.90113 4.09992 34987 ft 465 kts 135°
2026-05-04 12:34 52.85890 4.18014 34988 ft 463 kts 135°
2026-05-04 12:35 52.81663 4.26018 34995 ft 464 kts 135°
2026-05-04 12:35 52.77443 4.33983 34999 ft 463 kts 135°
2026-05-04 12:36 52.73218 4.41927 34997 ft 463 kts 135°
2026-05-04 12:36 52.68973 4.49885 34994 ft 463 kts 135°
2026-05-04 12:37 52.64740 4.57797 34986 ft 462 kts 135°
2026-05-04 12:37 52.60474 4.65746 34985 ft 462 kts 136°
2026-05-04 12:38 52.56242 4.73606 34977 ft 462 kts 136°
2026-05-04 12:38 52.51981 4.81489 34974 ft 462 kts 137°
2026-05-04 12:39 52.47724 4.89343 34971 ft 460 kts 137°
2026-05-04 12:39 52.43472 4.97165 34970 ft 461 kts 137°
2026-05-04 12:40 52.39218 5.04958 34971 ft 462 kts 137°
2026-05-04 12:40 52.34957 5.12750 34966 ft 460 kts 137°
2026-05-04 12:41 52.30686 5.20531 34963 ft 460 kts 137°
2026-05-04 12:41 52.26425 5.28273 34960 ft 458 kts 137°
2026-05-04 12:42 52.22134 5.36039 34958 ft 461 kts 137°
2026-05-04 12:42 52.17838 5.43794 34953 ft 460 kts 137°
2026-05-04 12:43 52.13578 5.51462 34951 ft 458 kts 137°
2026-05-04 12:43 52.09292 5.59151 34956 ft 459 kts 138°
2026-05-04 12:44 52.05029 5.66776 34953 ft 458 kts 139°
2026-05-04 12:44 52.00787 5.74339 34957 ft 457 kts 139°
2026-05-04 12:45 51.96475 5.81996 34959 ft 459 kts 139°
2026-05-04 12:45 51.92199 5.89572 34959 ft 458 kts 139°
2026-05-04 12:46 51.87926 5.97122 34952 ft 457 kts 139°
2026-05-04 12:46 51.83624 6.04699 34955 ft 458 kts 139°
2026-05-04 12:47 51.79346 6.12208 34956 ft 459 kts 139°
2026-05-04 12:47 51.75080 6.19670 34962 ft 457 kts 139°
2026-05-04 12:48 51.70779 6.27179 34958 ft 457 kts 139°
2026-05-04 12:48 51.66454 6.34704 34957 ft 457 kts 139°
2026-05-04 12:49 51.62125 6.42214 34960 ft 457 kts 139°
2026-05-04 12:49 51.57868 6.49573 34960 ft 457 kts 139°
2026-05-04 12:50 51.53669 6.56814 34959 ft 457 kts 139°
2026-05-04 12:50 51.49348 6.64243 34952 ft 455 kts 139°
2026-05-04 12:51 51.45075 6.71572 34962 ft 457 kts 140°
2026-05-04 12:51 51.40887 6.78730 34956 ft 456 kts 140°
2026-05-04 12:52 51.36543 6.86129 34955 ft 457 kts 140°
2026-05-04 12:52 51.32191 6.93524 34958 ft 457 kts 140°
2026-05-04 12:53 51.27885 7.00818 34957 ft 458 kts 140°
2026-05-04 12:53 51.23552 7.08140 34952 ft 457 kts 140°
2026-05-04 12:54 51.19173 7.15518 34952 ft 456 kts 139°
2026-05-04 12:54 51.14798 7.22861 34954 ft 458 kts 139°
2026-05-04 12:55 51.10428 7.30178 34952 ft 456 kts 139°
2026-05-04 12:55 51.06047 7.37491 34958 ft 456 kts 139°
2026-05-04 12:56 51.01690 7.44742 34959 ft 457 kts 139°
2026-05-04 12:56 50.97264 7.52083 34961 ft 458 kts 139°
2026-05-04 12:57 50.92873 7.59347 34968 ft 457 kts 139°
2026-05-04 12:57 50.88517 7.66534 34971 ft 456 kts 140°
2026-05-04 12:58 50.84119 7.73771 34971 ft 455 kts 140°
2026-05-04 12:58 50.79637 7.80807 34973 ft 454 kts 142°
2026-05-04 12:59 50.75029 7.87616 34977 ft 453 kts 143°
2026-05-04 12:59 50.70414 7.94365 34979 ft 454 kts 143°
2026-05-04 13:00 50.65781 8.01150 34981 ft 454 kts 142°
2026-05-04 13:00 50.61171 8.07961 34975 ft 455 kts 141°
2026-05-04 13:01 50.56920 8.15318 34974 ft 461 kts 135°
2026-05-04 13:01 50.52932 8.23195 34959 ft 462 kts 133°
2026-05-04 13:02 50.48978 8.31160 34953 ft 462 kts 133°
2026-05-04 13:02 50.45008 8.39066 34955 ft 462 kts 133°
2026-05-04 13:03 50.41027 8.46888 34956 ft 461 kts 133°
2026-05-04 13:03 50.36989 8.54729 34959 ft 460 kts 134°
2026-05-04 13:04 50.32738 8.62153 34959 ft 459 kts 137°
2026-05-04 13:04 50.28359 8.69342 34959 ft 458 kts 139°
2026-05-04 13:05 50.23992 8.76471 34955 ft 458 kts 139°
2026-05-04 13:05 50.19617 8.83654 34952 ft 458 kts 138°
2026-05-04 13:06 50.15230 8.90889 34957 ft 458 kts 138°
2026-05-04 13:06 50.10842 8.98129 34953 ft 459 kts 138°
2026-05-04 13:07 50.06468 9.05338 34942 ft 459 kts 138°
2026-05-04 13:07 50.02093 9.12534 34942 ft 460 kts 138°
2026-05-04 13:08 49.97704 9.19732 34945 ft 461 kts 137°
2026-05-04 13:08 49.93290 9.26956 34942 ft 460 kts 137°
2026-05-04 13:09 49.88923 9.34080 34950 ft 459 kts 137°
2026-05-04 13:09 49.84530 9.41225 34947 ft 460 kts 137°
2026-05-04 13:10 49.80100 9.48410 34948 ft 460 kts 137°
2026-05-04 13:10 49.75708 9.55511 34949 ft 461 kts 137°
2026-05-04 13:11 49.71274 9.62662 34952 ft 461 kts 137°
2026-05-04 13:11 49.66848 9.69780 34956 ft 460 kts 138°
2026-05-04 13:12 49.62443 9.76844 34950 ft 461 kts 138°
2026-05-04 13:12 49.57990 9.83965 34955 ft 460 kts 138°
2026-05-04 13:13 49.53545 9.91053 34960 ft 461 kts 138°
2026-05-04 13:13 49.49063 9.98178 34963 ft 461 kts 138°
2026-05-04 13:14 49.44636 10.05199 34970 ft 460 kts 138°
2026-05-04 13:14 49.40186 10.12237 34973 ft 461 kts 138°
2026-05-04 13:15 49.35722 10.19277 34975 ft 461 kts 138°
2026-05-04 13:15 49.31227 10.26344 34978 ft 462 kts 138°
2026-05-04 13:16 49.26749 10.33345 34979 ft 461 kts 139°
2026-05-04 13:16 49.21987 10.39775 34977 ft 456 kts 148°
2026-05-04 13:17 49.16700 10.45015 34973 ft 452 kts 153°
2026-05-04 13:17 49.11260 10.49851 34974 ft 452 kts 154°
2026-05-04 13:18 49.05822 10.54640 34972 ft 452 kts 153°
2026-05-04 13:18 49.00406 10.59451 34973 ft 452 kts 153°
2026-05-04 13:19 48.94988 10.64301 34971 ft 452 kts 153°
2026-05-04 13:19 48.89596 10.69139 34970 ft 452 kts 153°
2026-05-04 13:20 48.84204 10.74067 34969 ft 453 kts 150°
2026-05-04 13:20 48.79234 10.80013 34969 ft 458 kts 140°
2026-05-04 13:21 48.74818 10.86922 34966 ft 460 kts 136°
2026-05-04 13:21 48.70558 10.94143 34965 ft 461 kts 135°
2026-05-04 13:22 48.66325 11.01373 34966 ft 460 kts 135°
2026-05-04 13:22 48.62062 11.08576 34965 ft 461 kts 135°
2026-05-04 13:23 48.57795 11.15714 34964 ft 460 kts 135°
2026-05-04 13:23 48.53487 11.22871 34966 ft 461 kts 135°
2026-05-04 13:24 48.49180 11.29994 34965 ft 461 kts 136°
2026-05-04 13:24 48.44868 11.37101 34963 ft 461 kts 135°
2026-05-04 13:25 48.38375 11.47765 34954 ft 461 kts 135°
2026-05-04 13:25 48.34060 11.54829 34952 ft 460 kts 135°
2026-05-04 13:26 48.29725 11.61905 34950 ft 461 kts 135°
2026-05-04 13:26 48.25375 11.68954 34954 ft 460 kts 137°
2026-05-04 13:27 48.20773 11.75583 34952 ft 458 kts 141°
2026-05-04 13:27 48.16053 11.81924 34948 ft 457 kts 142°
2026-05-04 13:28 48.11321 11.88249 34939 ft 457 kts 141°
2026-05-04 13:28 48.06598 11.94608 34936 ft 457 kts 141°
2026-05-04 13:29 48.01889 12.00980 34938 ft 458 kts 141°
2026-05-04 13:29 47.97137 12.07420 34943 ft 459 kts 140°
2026-05-04 13:30 47.92421 12.13808 34952 ft 459 kts 140°
2026-05-04 13:30 47.87739 12.20137 34988 ft 459 kts 140°
2026-05-04 13:31 47.82981 12.26557 34985 ft 460 kts 140°
2026-05-04 13:31 47.78252 12.32922 35013 ft 459 kts 140°
2026-05-04 13:32 47.73535 12.39255 35034 ft 459 kts 140°
2026-05-04 13:32 47.68806 12.45588 35040 ft 458 kts 140°
2026-05-04 13:33 47.64055 12.51931 35044 ft 459 kts 140°
2026-05-04 13:33 47.59413 12.58352 35051 ft 461 kts 137°
2026-05-04 13:34 47.54929 12.65160 35048 ft 462 kts 136°
2026-05-04 13:34 47.50535 12.71954 35059 ft 462 kts 136°
2026-05-04 13:35 47.43828 12.82197 35080 ft 462 kts 136°
2026-05-04 13:36 47.39347 12.88955 35088 ft 461 kts 137°
2026-05-04 13:36 47.34855 12.95690 35092 ft 461 kts 137°
2026-05-04 13:37 47.30356 13.02411 35091 ft 461 kts 136°
2026-05-04 13:37 47.25853 13.09117 35115 ft 461 kts 136°
2026-05-04 13:38 47.21336 13.15826 35106 ft 462 kts 136°
2026-05-04 13:38 47.16828 13.22504 35119 ft 462 kts 136°
2026-05-04 13:39 47.12304 13.29192 35114 ft 463 kts 136°
2026-05-04 13:39 47.07768 13.35880 35108 ft 463 kts 136°
2026-05-04 13:40 47.03225 13.42562 35119 ft 462 kts 136°
2026-05-04 13:40 46.98683 13.49223 35122 ft 462 kts 136°
2026-05-04 13:41 46.94144 13.55864 35125 ft 462 kts 136°
2026-05-04 13:41 46.89599 13.62495 35120 ft 463 kts 136°
2026-05-04 13:42 46.82753 13.72455 35125 ft 463 kts 137°
2026-05-04 13:42 46.78169 13.79101 35115 ft 464 kts 137°
2026-05-04 13:43 46.73598 13.85713 35107 ft 464 kts 137°
2026-05-04 13:43 46.69012 13.92329 35105 ft 465 kts 137°
2026-05-04 13:44 46.64439 13.98888 35102 ft 465 kts 137°
2026-05-04 13:44 46.59832 14.05465 35096 ft 465 kts 137°
2026-05-04 13:45 46.55213 14.12042 35095 ft 466 kts 137°
2026-05-04 13:45 46.50594 14.18607 35108 ft 465 kts 137°
2026-05-04 13:46 46.45977 14.25151 35106 ft 466 kts 137°
2026-05-04 13:46 46.41331 14.31723 35108 ft 467 kts 137°
2026-05-04 13:47 46.36705 14.38251 35098 ft 467 kts 137°
2026-05-04 13:47 46.32057 14.44793 35090 ft 469 kts 137°
2026-05-04 13:48 46.27369 14.51375 35071 ft 470 kts 137°
2026-05-04 13:48 46.22693 14.57923 35073 ft 469 kts 136°
2026-05-04 13:49 46.18009 14.64465 35075 ft 471 kts 136°
2026-05-04 13:49 46.13307 14.71018 35083 ft 470 kts 137°
2026-05-04 13:50 46.08630 14.77519 35076 ft 469 kts 137°
2026-05-04 13:50 46.03883 14.83990 35073 ft 471 kts 138°
2026-05-04 13:51 45.99079 14.90390 35063 ft 470 kts 139°
2026-05-04 13:51 45.94262 14.96773 35062 ft 473 kts 138°
2026-05-04 13:52 45.87014 15.06371 35063 ft 473 kts 138°
2026-05-04 13:53 45.82159 15.12796 35062 ft 474 kts 138°
2026-05-04 13:53 45.77321 15.19188 35063 ft 474 kts 138°
2026-05-04 13:54 45.70089 15.28718 35053 ft 473 kts 138°
2026-05-04 13:55 45.62830 15.38246 35039 ft 475 kts 138°
2026-05-04 13:55 45.55520 15.47807 35038 ft 474 kts 137°
2026-05-04 13:56 45.50642 15.54166 35031 ft 476 kts 137°
2026-05-04 13:57 45.43341 15.63656 35035 ft 476 kts 137°
2026-05-04 13:58 45.33560 15.76315 35036 ft 477 kts 138°
2026-05-04 13:58 45.26190 15.85812 35045 ft 477 kts 138°
2026-05-04 13:59 45.21323 15.92177 35052 ft 477 kts 135°
2026-05-04 14:00 45.14562 16.02511 35049 ft 478 kts 131°
2026-05-04 14:00 45.07968 16.13038 35047 ft 477 kts 131°
2026-05-04 14:01 45.03538 16.20001 35045 ft 478 kts 131°
2026-05-04 14:02 44.96833 16.30411 35044 ft 478 kts 132°
2026-05-04 14:02 44.92276 16.37185 35046 ft 478 kts 134°
2026-05-04 14:03 44.87593 16.43842 35057 ft 479 kts 134°
2026-05-04 14:03 44.82911 16.50444 35066 ft 479 kts 134°
2026-05-04 14:04 44.75856 16.60412 35076 ft 480 kts 134°
2026-05-04 14:04 44.71163 16.67055 35076 ft 480 kts 135°
2026-05-04 14:05 44.64128 16.77002 35078 ft 479 kts 134°
2026-05-04 14:06 44.59414 16.83651 35093 ft 479 kts 134°
2026-05-04 14:06 44.54720 16.90254 35104 ft 481 kts 134°
2026-05-04 14:07 44.49932 16.96759 35117 ft 481 kts 136°
2026-05-04 14:07 44.45063 17.03147 35120 ft 482 kts 136°
2026-05-04 14:08 44.40159 17.09539 35122 ft 484 kts 136°
2026-05-04 14:08 44.35255 17.15938 35129 ft 483 kts 136°
2026-05-04 14:09 44.27929 17.25510 35139 ft 482 kts 136°
2026-05-04 14:10 44.20613 17.35052 35137 ft 482 kts 136°
2026-05-04 14:10 44.15700 17.41446 35127 ft 482 kts 136°
2026-05-04 14:11 44.10812 17.47793 35125 ft 483 kts 135°
2026-05-04 14:11 44.03469 17.57297 35121 ft 483 kts 136°
2026-05-04 14:12 43.98569 17.63618 35128 ft 482 kts 135°
2026-05-04 14:13 43.91150 17.73163 35128 ft 485 kts 136°
2026-05-04 14:13 43.86205 17.79507 35116 ft 485 kts 136°
2026-05-04 14:14 43.81271 17.85824 35114 ft 485 kts 136°
2026-05-04 14:14 43.74035 17.95491 35107 ft 484 kts 134°
2026-05-04 14:15 43.64435 18.08572 35123 ft 485 kts 134°
2026-05-04 14:16 43.57214 18.18356 35121 ft 488 kts 133°
2026-05-04 14:17 43.50104 18.28312 35118 ft 487 kts 133°
2026-05-04 14:18 43.43022 18.38261 35129 ft 487 kts 133°
2026-05-04 14:19 43.33509 18.51507 35146 ft 488 kts 133°
2026-05-04 14:19 43.28739 18.58111 35146 ft 488 kts 133°
2026-05-04 14:20 43.23999 18.64658 35157 ft 489 kts 133°
2026-05-04 14:20 43.19179 18.71296 35161 ft 489 kts 133°
2026-05-04 14:21 43.12017 18.81132 35164 ft 487 kts 133°
2026-05-04 14:21 43.07235 18.87682 35158 ft 487 kts 133°
2026-05-04 14:22 43.02463 18.94202 35160 ft 488 kts 133°
2026-05-04 14:22 42.97658 19.00752 35159 ft 488 kts 133°
2026-05-04 14:23 42.90445 19.10555 35164 ft 489 kts 133°
2026-05-04 14:24 42.85651 19.17051 35166 ft 488 kts 133°
2026-05-04 14:24 42.80827 19.23574 35163 ft 490 kts 133°
2026-05-04 14:25 42.76009 19.30073 35156 ft 489 kts 133°
2026-05-04 14:25 42.68774 19.39804 35154 ft 489 kts 133°
2026-05-04 14:26 42.63921 19.46312 35151 ft 492 kts 133°
2026-05-04 14:26 42.59049 19.52831 35151 ft 492 kts 133°
2026-05-04 14:27 42.54214 19.59283 35148 ft 491 kts 133°
2026-05-04 14:27 42.49273 19.65680 35149 ft 492 kts 135°
2026-05-04 14:28 42.44194 19.71917 35141 ft 494 kts 136°
2026-05-04 14:28 42.39103 19.78090 35140 ft 492 kts 136°
2026-05-04 14:29 42.28946 19.90447 35135 ft 492 kts 135°
2026-05-04 14:30 42.23859 19.96652 35127 ft 492 kts 135°
2026-05-04 14:31 42.16227 20.05947 35127 ft 493 kts 135°
2026-05-04 14:32 42.06052 20.18292 35133 ft 493 kts 135°
2026-05-04 14:32 42.00976 20.24431 35137 ft 495 kts 135°
2026-05-04 14:33 41.95863 20.30598 35134 ft 494 kts 135°
2026-05-04 14:33 41.90764 20.36736 35131 ft 494 kts 135°
2026-05-04 14:34 41.85622 20.42912 35129 ft 495 kts 135°
2026-05-04 14:34 41.80505 20.49072 35121 ft 496 kts 134°
2026-05-04 14:35 41.75860 20.55861 35116 ft 491 kts 123°
2026-05-04 14:35 41.72003 20.63331 35118 ft 489 kts 118°
2026-05-04 14:36 41.68442 20.71036 35121 ft 488 kts 117°
2026-05-04 14:36 41.64927 20.78772 35123 ft 488 kts 117°
2026-05-04 14:37 41.61388 20.86459 35127 ft 487 kts 117°
2026-05-04 14:37 41.57783 20.94194 35122 ft 489 kts 117°
2026-05-04 14:38 41.54194 21.01825 35123 ft 487 kts 117°
2026-05-04 14:38 41.50588 21.09460 35123 ft 488 kts 117°
2026-05-04 14:39 41.46990 21.17056 35119 ft 487 kts 118°
2026-05-04 14:39 41.43354 21.24711 35122 ft 487 kts 118°
2026-05-04 14:40 41.37939 21.36079 35118 ft 486 kts 118°
2026-05-04 14:40 41.34308 21.43677 35115 ft 486 kts 118°
2026-05-04 14:41 41.30533 21.51117 35121 ft 487 kts 121°
2026-05-04 14:42 41.22413 21.65472 35110 ft 489 kts 123°
2026-05-04 14:42 41.18293 21.72732 35109 ft 489 kts 123°
2026-05-04 14:43 41.14238 21.79921 35109 ft 489 kts 123°
2026-05-04 14:43 41.10186 21.87129 35110 ft 489 kts 123°
2026-05-04 14:44 41.05941 21.94107 35102 ft 492 kts 130°
2026-05-04 14:44 41.01001 22.00380 35093 ft 494 kts 135°
2026-05-04 14:45 40.95849 22.06404 35089 ft 493 kts 136°
2026-05-04 14:45 40.90735 22.12383 35104 ft 493 kts 135°
2026-05-04 14:46 40.85652 22.18414 35104 ft 491 kts 135°
2026-05-04 14:46 40.80611 22.24462 35087 ft 489 kts 134°
2026-05-04 14:47 40.75575 22.30532 35072 ft 491 kts 134°
2026-05-04 14:47 40.70562 22.36576 35068 ft 489 kts 134°
2026-05-04 14:48 40.65553 22.42601 35072 ft 490 kts 134°
2026-05-04 14:48 40.60495 22.48675 35077 ft 489 kts 134°
2026-05-04 14:49 40.55505 22.54652 35078 ft 486 kts 135°
2026-05-04 14:49 40.50494 22.60641 35077 ft 487 kts 134°
2026-05-04 14:50 40.45482 22.66621 35081 ft 490 kts 135°
2026-05-04 14:50 40.40472 22.72585 35078 ft 486 kts 135°
2026-05-04 14:51 40.35477 22.78516 35092 ft 486 kts 135°
2026-05-04 14:51 40.30447 22.84480 35089 ft 487 kts 135°
2026-05-04 14:52 40.25445 22.90395 35089 ft 485 kts 135°
2026-05-04 14:52 40.20448 22.96293 35092 ft 487 kts 135°
2026-05-04 14:53 40.15444 23.02187 35106 ft 486 kts 136°
2026-05-04 14:53 40.10429 23.08081 35090 ft 485 kts 136°
2026-05-04 14:54 40.05418 23.13957 35091 ft 483 kts 136°
2026-05-04 14:54 40.00435 23.19789 35077 ft 483 kts 135°
2026-05-04 14:55 39.95419 23.25648 35082 ft 483 kts 135°
2026-05-04 14:55 39.90431 23.31464 35098 ft 485 kts 136°
2026-05-04 14:56 39.85407 23.37306 35082 ft 482 kts 135°
2026-05-04 14:56 39.80433 23.43082 35090 ft 484 kts 136°
2026-05-04 14:57 39.75403 23.48909 35073 ft 483 kts 135°
2026-05-04 14:57 39.70410 23.54680 35079 ft 482 kts 136°
2026-05-04 14:58 39.65377 23.60486 35077 ft 483 kts 135°
2026-05-04 14:58 39.61220 23.65275 35034 ft 481 kts 136°
2026-05-04 14:59 39.55352 23.72021 35060 ft 483 kts 136°
2026-05-04 14:59 39.50325 23.77788 35185 ft 487 kts 136°
2026-05-04 15:00 39.47802 23.80678 35107 ft 483 kts 136°
2026-05-04 15:00 39.45309 23.83528 35213 ft 480 kts 136°
2026-05-04 15:00 39.42786 23.86411 35071 ft 483 kts 137°
2026-05-04 15:01 39.35271 23.94981 35081 ft 482 kts 136°
2026-05-04 15:01 39.30219 24.00730 35079 ft 486 kts 136°
2026-05-04 15:02 39.25158 24.06475 35083 ft 485 kts 136°
2026-05-04 15:02 39.20084 24.12225 35089 ft 485 kts 136°
2026-05-04 15:03 39.15016 24.17956 35134 ft 487 kts 137°
2026-05-04 15:03 39.09951 24.23671 35108 ft 484 kts 137°
2026-05-04 15:04 39.04905 24.29355 35107 ft 486 kts 137°
2026-05-04 15:04 38.99802 24.35093 35116 ft 489 kts 137°
2026-05-04 15:05 38.94714 24.40800 35119 ft 486 kts 137°
2026-05-04 15:05 38.89635 24.46486 35111 ft 486 kts 137°
2026-05-04 15:06 38.84512 24.52211 35113 ft 486 kts 137°
2026-05-04 15:07 38.76862 24.60738 35117 ft 488 kts 136°
2026-05-04 15:07 38.71774 24.66394 35107 ft 485 kts 137°
2026-05-04 15:08 38.66673 24.72053 35099 ft 486 kts 137°
2026-05-04 15:08 38.61549 24.77732 35102 ft 487 kts 137°
2026-05-04 15:09 38.56465 24.83352 35101 ft 485 kts 137°
2026-05-04 15:09 38.51344 24.89002 35120 ft 490 kts 137°
2026-05-04 15:10 38.43675 24.97442 35108 ft 485 kts 137°
2026-05-04 15:11 38.36014 25.05848 35077 ft 484 kts 137°
2026-05-04 15:11 38.30862 25.11488 35121 ft 489 kts 137°
2026-05-04 15:12 38.25731 25.17095 35102 ft 486 kts 137°
2026-05-04 15:12 38.20620 25.22667 35092 ft 488 kts 137°
2026-05-04 15:13 38.15449 25.28294 35107 ft 487 kts 137°
2026-05-04 15:13 38.10334 25.33849 35093 ft 487 kts 137°
2026-05-04 15:14 38.05161 25.39458 35097 ft 488 kts 137°
2026-05-04 15:14 38.00030 25.45008 35103 ft 487 kts 137°
2026-05-04 15:15 37.94883 25.50567 35100 ft 488 kts 137°
2026-05-04 15:15 37.89714 25.56139 35095 ft 488 kts 138°
2026-05-04 15:16 37.81966 25.64472 35083 ft 488 kts 138°
2026-05-04 15:17 37.74205 25.72794 35097 ft 488 kts 139°
2026-05-04 15:17 37.69048 25.78309 34673 ft 491 kts 138°
2026-05-04 15:17 37.66415 25.81121 33866 ft 495 kts 138°
2026-05-04 15:18 37.63801 25.83911 33062 ft 499 kts 137°
2026-05-04 15:18 37.61160 25.86726 32111 ft 496 kts 137°
2026-05-04 15:18 37.58598 25.89475 31256 ft 482 kts 136°
2026-05-04 15:19 37.53902 25.95128 29253 ft 466 kts 132°
2026-05-04 15:19 37.51617 25.98090 27961 ft 473 kts 131°
2026-05-04 15:19 37.47081 26.04036 26220 ft 470 kts 132°
2026-05-04 15:20 37.44853 26.06922 25810 ft 458 kts 132°
2026-05-04 15:20 37.42640 26.09761 25211 ft 454 kts 133°
2026-05-04 15:20 37.40414 26.12595 24606 ft 449 kts 133°
2026-05-04 15:20 37.38240 26.15347 24016 ft 445 kts 133°
2026-05-04 15:21 37.36074 26.18078 23419 ft 441 kts 133°
2026-05-04 15:21 37.33916 26.20790 22822 ft 437 kts 133°
2026-05-04 15:21 37.29664 26.26117 21659 ft 430 kts 133°
2026-05-04 15:22 37.27567 26.28739 21079 ft 427 kts 133°
2026-05-04 15:22 37.25451 26.31380 20494 ft 429 kts 133°
2026-05-04 15:22 37.21233 26.36640 19319 ft 426 kts 133°
2026-05-04 15:23 37.19141 26.39245 18734 ft 425 kts 133°
2026-05-04 15:23 37.17054 26.41844 18151 ft 428 kts 133°
2026-05-04 15:23 37.14952 26.44461 17552 ft 425 kts 133°
2026-05-04 15:23 37.12856 26.47069 16961 ft 421 kts 133°
2026-05-04 15:24 37.08754 26.52164 15756 ft 414 kts 132°
2026-05-04 15:24 37.04736 26.57140 13776 ft 402 kts 132°
2026-05-04 15:25 37.02775 26.59567 13019 ft 394 kts 132°
2026-05-04 15:25 37.00836 26.61967 12404 ft 391 kts 132°
2026-05-04 15:25 36.98923 26.64334 11832 ft 388 kts 132°
2026-05-04 15:26 36.95128 26.69022 10924 ft 375 kts 133°
2026-05-04 15:26 36.93294 26.71282 10735 ft 362 kts 133°
2026-05-04 15:26 36.89869 26.75497 10436 ft 331 kts 133°
2026-05-04 15:27 36.88274 26.77459 10353 ft 315 kts 133°
2026-05-04 15:27 36.85245 26.81190 9968 ft 299 kts 133°
2026-05-04 15:28 36.82281 26.84840 9216 ft 297 kts 133°
2026-05-04 15:28 36.80813 26.86644 8877 ft 295 kts 133°
2026-05-04 15:28 36.77905 26.90211 8173 ft 293 kts 132°
2026-05-04 15:29 36.76471 26.91967 7839 ft 291 kts 132°
2026-05-04 15:30 36.70766 26.98944 6487 ft 284 kts 131°
2026-05-04 15:30 36.66572 27.04068 5491 ft 280 kts 131°
2026-05-04 15:31 36.63794 27.07455 4852 ft 278 kts 132°
2026-05-04 15:31 36.62411 27.09142 4449 ft 280 kts 132°
2026-05-04 15:32 36.59604 27.14592 3464 ft 231 kts 76°
2026-05-04 15:32 36.60427 27.18108 3176 ft 192 kts 62°
2026-05-04 15:33 36.61426 27.20920 3237 ft 170 kts 51°
2026-05-04 15:34 36.64140 27.22773 3228 ft 148 kts 351°
2026-05-04 15:34 36.65058 27.22266 3246 ft 147 kts 326°
2026-05-04 15:34 36.66765 27.20810 3038 ft 148 kts 328°
2026-05-04 15:35 36.68312 27.19109 2676 ft 146 kts 316°
2026-05-04 15:35 36.68944 27.18158 2449 ft 138 kts 312°
2026-05-04 15:35 36.69535 27.17258 2305 ft 127 kts 317°
2026-05-04 15:36 36.70753 27.15892 1933 ft 118 kts 324°
2026-05-04 15:36 36.71428 27.15235 1905 ft 123 kts 325°
2026-05-04 15:36 36.72129 27.14644 1898 ft 122 kts 329°
2026-05-04 15:37 36.72885 27.14082 1851 ft 129 kts 332°
2026-05-04 15:37 36.73692 27.13516 1832 ft 136 kts 330°
2026-05-04 15:37 36.74528 27.12892 1695 ft 145 kts 330°
2026-05-04 15:37 36.75402 27.12225 1432 ft 146 kts 330°
2026-05-04 15:38 36.76304 27.11564 1046 ft 153 kts 328°
2026-05-04 15:38 36.77193 27.10857 780 ft 152 kts 328°
2026-05-04 15:38 36.78090 27.10178 556 ft 151 kts 328°
2026-05-04 15:38 36.78952 27.09501 390 ft 137 kts 328°
2026-05-04 15:39 36.79522 27.09063 405 ft 58 kts 329°
2026-05-04 15:39 36.79746 27.08890 410 ft 36 kts 328°
2026-05-04 15:39 36.80001 27.08691 414 ft 15 kts 328°
2026-05-04 15:40 36.80090 27.08622 415 ft 14 kts 328°
2026-05-04 15:40 36.80171 27.08559 415 ft 13 kts 328°
2026-05-04 15:40 36.80245 27.08502 416 ft 12 kts 328°
2026-05-04 15:40 36.80308 27.08454 416 ft 9 kts 335°
2026-05-04 15:41 36.80357 27.08469 416 ft 7 kts 74°
2026-05-04 15:41 36.80351 27.08535 416 ft 8 kts 101°
2026-05-04 15:41 36.80337 27.08612 417 ft 10 kts 103°
2026-05-04 15:41 36.80302 27.08692 417 ft 11 kts 142°
2026-05-04 15:42 36.80237 27.08744 417 ft 11 kts 147°
2026-05-04 15:42 36.80185 27.08785 416 ft 6 kts 148°
2026-05-04 15:42 36.80146 27.08815 416 ft 6 kts 148°
2026-05-04 15:42 36.80109 27.08844 415 ft 5 kts 147°
2026-05-04 15:43 36.80093 27.08884 415 ft 5 kts 91°
2026-05-04 15:43 36.80094 27.08927 415 ft 3 kts 89°
2026-05-04 15:43 36.80094 27.08944 416 ft 0 kts 87°
2026-05-04 15:43 36.80094 27.08950 416 ft 0 kts 87°
2026-05-04 15:44 36.80094 27.08955 416 ft 0 kts 87°
2026-05-04 15:44 36.80094 27.08957 416 ft 0 kts 87°